Regional Weather Roundup
Issued by NWS

Home | Current Version | Previous Version | Graphics & Text | Print | Product List | Glossary On
Versions: 1 2 3 4 5 6 7 8 9 10 11 12 13 14 15 16 17 18 19 20 21 22 23 24 25 26 27 28 29 30 31 32 33 34 35 36 37 38 39 40 41 42 43 44 45 46 47 48 49 50
000
ASUS43 KFSD 271610
RWRSD

WEATHER ROUNDUP FOR SOUTH DAKOTA
NATIONAL WEATHER SERVICE SIOUX FALLS SD
1100 AM CDT THU JUL 27 2017

NOTE: "FAIR" INDICATES FEW OR NO CLOUDS BELOW 12,000 FEET WITH NO
SIGNIFICANT WEATHER AND/OR OBSTRUCTIONS TO VISIBILITY.


SDZ001>005-009-010-012>017-271700-
NORTHWEST AND NORTH CENTRAL SOUTH DAKOTA

CITY           SKY/WX    TMP DP  RH WIND       PRES   REMARKS
BUFFALO          N/A     85  58  39 S21G31    30.02F
FAITH            N/A     82  55  39 S20G28    30.12S
MOBRIDGE       SUNNY     79  63  57 S8        30.12S
$$

SDZ012>016-024>037-041>051-057-063-072>074-271700-
SOUTHWEST AND SOUTH CENTRAL SOUTH DAKOTA

CITY           SKY/WX    TMP DP  RH WIND       PRES   REMARKS
RAPID CTY ARPT CLOUDY    77  62  59 S17G24    30.14F
PIERRE         SUNNY     81  54  39 SE8       30.12S
CUSTER         TSTM      62  59  90 CALM      30.26S FOG
ELLSWORTH AFB  CLOUDY    79  63  56 S21       30.13S
PHILIP         CLOUDY    84  56  38 SE14      30.12F
PINE RIDGE     PTSUNNY   69  50  50 SE14G23   30.19S
SPEARFISH      FAIR      82  59  44 S9G22     30.13S
WINNER         FAIR      82  58  43 SE10      30.16S
$$

SDZ004>011-016>023-039-040-271700-
NORTHEAST SOUTH DAKOTA

CITY           SKY/WX    TMP DP  RH WIND       PRES   REMARKS
ABERDEEN       SUNNY     76  62  62 VRB5      30.15F
WATERTOWN      MOSUNNY   74  60  61 NE6       30.15S
BROOKINGS      MOSUNNY   74  62  66 N5        30.15S
SISSETON         N/A     79  60  52 VRB3      30.13F
$$

SDZ017-020-022-023-036>040-048>070-271700-
SOUTHEAST SOUTH DAKOTA

CITY           SKY/WX    TMP DP  RH WIND       PRES   REMARKS
SIOUX FALLS    MOSUNNY   78  65  63 CALM      30.13R
HURON          SUNNY     76  61  59 VRB3      30.14S
CHAMBERLAIN    SUNNY     80  62  55 S7        30.14S
MITCHELL       SUNNY     78  64  61 E5        30.14S
YANKTON        SUNNY     78  62  57 N7        30.13S
$$

ABBREVIATIONS USED IN REMARKS
   TC - TEMPERATURE IN CELSIUS
  WCI - WIND CHILL INDEX
   HX - HEAT INDEX
  VSB - VISIBILITY




USA.gov is the U.S. government's official web portal to all federal, state and local government web resources and services.